Location: Rancho Del Sol Observatory
(38.7214°N, 120.6350°W)
Time: 13:04:57
(UTC-08:00)

Courier 1B Rocket - Pass Details

Date: 26 January 2020
Orbit: 920 x 1202 km, 28.2° (Epoch: 22 February)

Event Time Altitude Azimuth Distance (km) Brightness Sun altitude
Rises 14:27:09 0° 260° (W) 3,830 8.7 24.8°
Reaches altitude 10° 14:30:21 10° 249° (WSW) 2,825 8.5 24.5°
Maximum altitude 14:35:59 28° 193° (SSW) 1,758 8.0 23.8°
Drops below altitude 10° 14:41:21 10° 137° (SE) 2,670 7.5 23.2°
Sets 14:44:16 0° 125° (SE) 3,585 7.9 22.8°
